Starlink 32138

operational
NORAD ID: 60255 Int'l Des: 2024-131 Owner: SPXS Country: US Constellation: starlink
LEOCIRCULAR

About Starlink 32138

Description loading...

Live Position

Loading 3D Globe...

Upcoming Passes

Altitude History

Altitude vs Time

uPlot chart will show altitude changes over time

Two-Line Element Set

1 60255U 24131A 25258.42957687 .00003465 00000-0 12907-3 0 9999
2 60255 53.1595 146.6293 0001063 88.3050 271.8072 15.30193009 65181
Epoch: Sep 15, 2025 • Age: 17 hours

Current Status

Altitude 490.6 km
Velocity 7.62 km/s
Sub-Earth Point -43.92°S, 31.51°W
Launch Date Jul 27, 2024
Age 1.1 years
Type internet

Technical Details

Classification Payload
Mass 730.00 kg
Dry Mass 700.00 kg
Total Mass 730.00 kg
Length 0.30 m
Diameter 4.10 m
Span 29.00 m
Shape Box + pan
Manufacturer SPXS
Bus Type Starlink V2M
Phase Status In Orbit
Owner/State SPXS/US

Large Constellations

Loading constellations...